Change the Weather History Date:

Wednesday, January 30, 2013

  Actual Average (KYNG) Record (KYNG)
Temperature  
Mean Temperature 49 °F 26 °F  
Max Temperature 61 °F 33 °F 64 °F (2013)
Min Temperature 37 °F 19 °F -8 °F (1965)
Degree Days  
Heating Degree Days 16 39  
Month to date heating degree days 1176  
Since 1 July heating degree days 3582  
Cooling Degree Days 0 0  
Month to date cooling degree days 0  
Year to date cooling degree days 0  
Moisture  
Dew Point 48 °F    
Average Humidity 76    
Maximum Humidity 88    
Minimum Humidity 62    
Precipitation  
Precipitation 0.53 in 0.07 in 0.88 in (1982)
Month to date precipitation 2.47  
Year to date precipitation 2.47  
Snow  
Snow 0.00 in 0.50 in - ()
Month to date snowfall 16.1  
Since 1 July snowfall 35.5  
Snow Depth -    
Sea Level Pressure  
Sea Level Pressure 29.32 in    
Wind  
Wind Speed 16 mph (SSW)    
Max Wind Speed 29 mph    
Max Gust Speed 50 mph    
Visibility 8 miles    
Events Rain    
T = Trace of Precipitation, MM = Missing Value Source: NWS Daily Summary

Daily Weather History Graph

Daily Weather History Graph

Search for Another Location

Airport or City:

Trip Planner

Search our weather history database for the weather conditions in past years. The results will help you decide how hot, cold, wet, or windy it might be!

Date:

Astronomy

Jan. 30, 2013 Rise Set
Actual Time 7:36 AM EST 5:35 PM EST
Civil Twilight 7:07 AM EST 6:05 PM EST
Nautical Twilight 6:33 AM EST 6:38 PM EST
Astronomical Twilight 6:01 AM EST 7:11 PM EST
Moon 9:37 PM EST (1/30) 8:59 AM EST (1/30)
Length of Visible Light 10h 58m
Length of Day
9h 59m
Waning Gibbous, 88% of the Moon is Illuminated
Jan 30
Waning Gibbous
Feb 3
Last Quarter
Feb 10
New
Feb 17
First Quarter
Feb 25
Full

Hourly Weather History & Observations

Time (EST) Temp. Windchill Dew Point Humidity Pressure Visibility Wind Dir Wind Speed Gust Speed Precip Events Conditions
12:53 AM 59.0 °F - 48.9 °F 69% 29.63 in 10.0 mi South 17.3 mph 23.0 mph N/A   Scattered Clouds
1:53 AM 60.1 °F - 48.9 °F 67% 29.59 in 10.0 mi South 18.4 mph 26.5 mph N/A   Clear
2:53 AM 60.1 °F - 50.0 °F 69% 29.55 in 10.0 mi South 18.4 mph 25.3 mph N/A   Clear
3:53 AM 60.1 °F - 46.9 °F 62% 29.51 in 10.0 mi South 16.1 mph 25.3 mph N/A   Clear
4:53 AM 60.1 °F - 46.9 °F 62% 29.46 in 10.0 mi South 17.3 mph 25.3 mph N/A   Clear
5:53 AM 61.0 °F - 48.0 °F 62% 29.43 in 10.0 mi South 19.6 mph 33.4 mph N/A   Clear
6:53 AM 61.0 °F - 48.0 °F 62% 29.41 in 10.0 mi South 15.0 mph 24.2 mph N/A   Partly Cloudy
7:53 AM 59.0 °F - 48.0 °F 67% 29.37 in 10.0 mi South 17.3 mph 28.8 mph N/A   Partly Cloudy
8:53 AM 57.9 °F - 50.0 °F 75% 29.33 in 6.0 mi South 15.0 mph 27.6 mph 0.03 in Rain Light Rain
9:09 AM 57.2 °F - 51.8 °F 82% 29.42 in 2.0 mi West 16.1 mph 31.1 mph 0.10 in Rain Light Rain
9:12 AM 57.2 °F - 51.8 °F 82% 29.42 in 1.0 mi West 18.4 mph 31.1 mph 0.15 in Rain Heavy Rain
9:17 AM 57.2 °F - 53.6 °F 88% 29.43 in 1.0 mi West 18.4 mph 27.6 mph 0.18 in Rain Heavy Rain
9:24 AM 57.2 °F - 53.6 °F 88% 29.43 in 2.0 mi West 17.3 mph 27.6 mph 0.21 in Rain Heavy Rain
9:35 AM 57.2 °F - 53.6 °F 88% 29.43 in 4.0 mi West 12.7 mph 25.3 mph 0.24 in Rain Light Rain
9:42 AM 57.2 °F - 51.8 °F 82% 29.43 in 7.0 mi West 12.7 mph 20.7 mph 0.24 in Rain Light Rain
9:53 AM 55.9 °F - 52.0 °F 87% 29.43 in 10.0 mi WSW 11.5 mph - 0.24 in   Overcast
10:53 AM 57.0 °F - 52.0 °F 83% 29.40 in 10.0 mi South 12.7 mph - 0.02 in Rain Light Rain
11:53 AM 57.0 °F - 51.1 °F 81% 29.35 in 10.0 mi South 19.6 mph 29.9 mph 0.00 in   Overcast
12:53 PM 57.0 °F - 50.0 °F 77% 29.33 in 10.0 mi South 26.5 mph 36.8 mph N/A   Overcast
1:53 PM 57.0 °F - 50.0 °F 77% 29.30 in 10.0 mi South 15.0 mph 34.5 mph N/A   Overcast
2:53 PM 57.0 °F - 48.9 °F 74% 29.32 in 10.0 mi South 12.7 mph 23.0 mph N/A   Scattered Clouds
3:25 PM 57.2 °F - 48.2 °F 72% 29.32 in 10.0 mi South 16.1 mph 23.0 mph N/A   Mostly Cloudy
3:32 PM 57.2 °F - 48.2 °F 72% 29.32 in 10.0 mi South 12.7 mph 23.0 mph N/A   Scattered Clouds
3:46 PM 57.2 °F - 48.2 °F 72% 29.31 in 10.0 mi South 10.4 mph - N/A   Mostly Cloudy
3:53 PM 57.0 °F - 48.0 °F 72% 29.31 in 10.0 mi SSW 11.5 mph - N/A   Mostly Cloudy
4:21 PM 55.4 °F - 48.2 °F 77% 29.31 in 10.0 mi South 11.5 mph 20.7 mph N/A   Mostly Cloudy
4:39 PM 57.2 °F - 48.2 °F 72% 29.32 in 10.0 mi SSW 15.0 mph 19.6 mph N/A   Mostly Cloudy
4:53 PM 55.9 °F - 48.0 °F 75% 29.27 in 10.0 mi South 13.8 mph - N/A   Overcast
5:53 PM 55.9 °F - 48.0 °F 75% 29.26 in 10.0 mi SSW 11.5 mph 21.9 mph N/A   Overcast
6:53 PM 55.9 °F - 48.0 °F 75% 29.23 in 10.0 mi SSW 11.5 mph 20.7 mph N/A   Overcast
7:02 PM 55.4 °F - 48.2 °F 77% 29.22 in 10.0 mi South 15.0 mph 20.7 mph N/A   Overcast
7:44 PM 55.4 °F - 48.2 °F 77% 29.20 in 10.0 mi South 16.1 mph 24.2 mph N/A   Overcast
7:53 PM 55.9 °F - 48.9 °F 77% 29.19 in 10.0 mi South 15.0 mph 20.7 mph N/A   Overcast
8:04 PM 55.4 °F - 48.2 °F 77% 29.19 in 10.0 mi South 13.8 mph 21.9 mph N/A   Overcast
8:53 PM 54.0 °F - 50.0 °F 86% 29.15 in 5.0 mi SSW 5.8 mph - 0.07 in Rain Light Rain
9:12 PM 53.6 °F - 50.0 °F 88% 29.16 in 2.5 mi WSW 11.5 mph - 0.10 in Rain Heavy Rain
9:20 PM 53.6 °F - 48.2 °F 82% 29.16 in 2.5 mi SSW 15.0 mph 29.9 mph 0.13 in Rain Rain
9:22 PM 53.6 °F - 48.2 °F 82% 29.16 in 3.0 mi SSW 13.8 mph 29.9 mph 0.13 in Rain Light Rain
9:53 PM 53.1 °F - 48.0 °F 83% 29.15 in 10.0 mi SW 11.5 mph - 0.14 in   Overcast
10:41 PM 46.4 °F 37.9 °F 37.4 °F 71% 29.17 in 10.0 mi West 25.3 mph 39.1 mph 0.00 in Rain Light Rain
10:53 PM 44.1 °F 34.2 °F 35.1 °F 71% 29.18 in 10.0 mi West 28.8 mph 49.5 mph 0.00 in Rain Light Rain
11:15 PM 39.2 °F 29.0 °F 33.8 °F 81% 29.22 in 10.0 mi West 21.9 mph 38.0 mph 0.00 in Rain Light Rain
11:33 PM 37.4 °F 27.5 °F 32.0 °F 81% 29.21 in 7.0 mi West 18.4 mph 34.5 mph 0.02 in Rain Light Rain
11:53 PM 37.9 °F 28.2 °F 33.1 °F 83% 29.23 in 10.0 mi West 18.4 mph - 0.03 in Rain Light Rain